Location: Nianha
(10.8000°N, 4.6333°W)
Time: 05:02:51
(UTC+00:00)

SWIFT - Pass Details

Date: 14 November 2019
Orbit: 545 x 560 km, 20.6° (Epoch: 18 January)

Event Time Altitude Azimuth Distance (km) Brightness Sun altitude
Exits shadow 05:00:09 29° 239° (WSW) 1,027 3.3 -18.1°
Maximum altitude 05:02:14 73° 161° (SSE) 581 2.4 -17.6°
Drops below altitude 10° 05:06:29 10° 76° (ENE) 1,829 5.9 -16.6°
Sets 05:08:46 0° 74° (ENE) 2,722 6.9 -16.1°
